Regional Weather Roundup
Issued by NWS Kansas City/Pleasant Hill, MO

Home | Current Version | Previous Version | Graphics & Text | Print | Product List | Glossary Off
Versions: 1 2 3 4 5 6 7 8 9 10 11 12 13 14 15 16 17 18 19 20 21 22 23 24 25 26 27 28 29 30 31 32 33 34 35 36 37 38 39 40 41 42 43 44 45 46 47 48 49 50

000
ASUS43 KEAX 071410
RWREAX

WEATHER ROUNDUP FOR EASTERN KANSAS AND NORTHWEST MISSOURI
NATIONAL WEATHER SERVICE KANSAS CITY/PLEASANT HILL MO
800 AM CST SUN FEB 07 2016

KSZ040-057-103>105-MOZ028-029-037-043-071500-
...KANSAS CITY METROPOLITAN AREA...

CITY           SKY/WX    TMP DP  RH WIND       PRES   REMARKS
K.C. INTL      CLOUDY    37  28  70 W7        30.01R WCI  32
K.C. DOWNTOWN  CLOUDY    40  27  59 W7        30.02R
LEES SUMMIT    CLOUDY    39  26  59 W9        30.00R WCI  33
OLATHE - IXD   CLOUDY    38  27  64 W8        30.04R WCI  32
OLATHE - OJC   CLOUDY    38  26  62 W8        30.03R WCI  32
LAWRENCE       CLOUDY    37  28  70 NW7       30.05R WCI  32

$$

MOZ001>008-011>017-020>025-030>033-038>040-044>046-053-054-071500-
...NORTHERN AND CENTRAL MISSOURI...

CITY           SKY/WX    TMP DP  RH WIND       PRES   REMARKS
ST. JOSEPH     CLOUDY    36  28  73 CALM      30.02R
MOSBY          CLOUDY    39  28  65 W5        30.00R
WARRENSBURG    CLOUDY    37  28  70 SW12      30.00S WCI  30
WHITEMAN AFB   CLOUDY    39  27  60 W14       29.99R WCI  31
CLINTON          N/A     39  30  70 SW14      30.04S WCI  31
SEDALIA        PTCLDY    41  27  57 SW16G24   30.01R WCI  33
WARSAW         NOT AVBL
CHILLICOTHE      N/A     39  28  64 W6        29.96S WCI  35
KIRKSVILLE     CLOUDY    37  26  64 W10       29.91F WCI  30

$$

MOZ041-047>049-056>058-063>065-088>090-097-071500-
...EASTERN AND SOUTHERN MISSOURI...

CITY           SKY/WX    TMP DP  RH WIND       PRES   REMARKS
ST. LOUIS INTL MOCLDY    43  25  49 SW16      30.00F
SPIRIT OF STL  CLEAR     42  27  55 SW15      30.00F WCI  34
COLUMBIA       MOCLDY    39  28  64 SW13      29.99R WCI  31
JEFFERSON CITY CLOUDY    39  28  64 SW7       30.02S WCI  34
ROLLA          CLEAR     37  28  70 SW14      30.01F WCI  28
OSAGE BEACH    CLOUDY    43  27  52 SW13G21   30.03S
SPRINGFIELD    CLEAR     38  29  70 SW12      30.07S WCI  30
BRANSON        PTCLDY    39  28  65 SW9       30.12S WCI  33
JOPLIN         CLEAR     41  30  65 SW16G24   30.12R WCI  33
WEST PLAINS    CLEAR     36  19  50 SW9       30.10F WCI  29

$$

IAZ060-094-KSZ022-034>040-054-083-096-NEZ052-066-093-071500-
...KANSAS...SOUTHEAST NEBRASKA AND IOWA...

CITY           SKY/WX    TMP DP  RH WIND       PRES   REMARKS
TOPEKA         CLOUDY    38  27  64 W8        30.06R WCI  32
MANHATTAN      PTCLDY    36  28  73 W3        30.10R
EMPORIA        CLOUDY    37  27  67 W7        30.08R WCI  32
CHANUTE        MOCLDY    36  27  69 SW8       30.08S WCI  30
WICHITA        CLOUDY    39  27  62 N8        30.08F WCI  33
OMAHA          CLOUDY    38  25  59 NW17      29.96R WCI  28
LINCOLN        CLOUDY    37  24  59 NW14      30.03R WCI  28
FALLS CITY     CLOUDY    35  27  72 W10       30.01R WCI  27
LAMONI         CLOUDY    33  28  81 W12       29.92R WCI  24
DES MOINES     MOCLDY    38  26  62 NW15      29.88R WCI  29

$$




USA.gov is the U.S. government's official web portal to all federal, state and local government web resources and services.